Header for Extended Forecast Station List Page

Search by: ID | Name | Date | Parm | Value | Avg | % Avg
Sort by: ID | Name | Date | Parm | Value | Avg | % Avg

Enter search or view all records.

Click on id for station plot
#IDNameDateParmValueAvg% Avg
0ABOM8CLARK FORK-ABOVE MISSOULA01-13-2020DISCHARGE (KAF)51554495
1AFRI1SNAKE-AMERICAN FALLS RESERVOIR01-13-2020INFLOW (KAF)1407179179
2ALFW1PEND OREILLE-ALBENI FALLS DAM01-13-2020INFLOW (KAF)4648587879
3ALPW4SNAKE-NEAR ALPINE01-13-2020DISCHARGE (KAF)41553977
4ANAW1SNAKE-NEAR ANATONE01-13-2020DISCHARGE (KAF)5936870068
5ANTI1HENRYS FORK-AT ST. ANTHONY01-13-2020DISCHARGE (KAF)441423104
6ARAI1SF BOISE-ANDERSON RANCH DAM01-13-2020INFLOW (KAF)20122589
7ARDW1ENTIAT-NEAR ARDENVOIR01-13-2020DISCHARGE (KAF)404786
8BELM8CLARK FORK-BELOW MISSOULA01-13-2020DISCHARGE (KAF)85192792
9BERO3MALHEUR-AGENCY VALLEY DAM01-13-2020INFLOW (KAF)304764
10BFEI1KOOTENAI-AT BONNERS FERRY01-13-2020STAGE (FT)MMM
11BFTI1SNAKE-NEAR BLACKFOOT01-13-2020DISCHARGE (KAF)803107375
12BIGI1BOISE-AT GLENWOOD BRIDGE01-13-2020DISCHARGE (KAF)275179154
13BITM8BITTERROOT-NEAR MISSOULA01-13-2020DISCHARGE (KAF)33537290
14BONM8BLACKFOOT-NEAR BONNER01-13-2020DISCHARGE (KAF)26026498
15BONO3COLUMBIA-BONNEVILLE DAM01-13-2020INFLOW (KAF)372244611781
16BRNI1SNAKE-BROWNLEE DAM01-13-2020INFLOW (KAF)3631513271
17BUDW1BUMPING-BUMPING LAKE DAM01-13-2020INFLOW (KAF)5450109
18BULO3BULLY CREEK-BULLY CREEK DAM01-13-2020INFLOW (KAF)4939
19CABI1CLARK FORK-CABINET GORGE DAM01-13-2020INFLOW (KAF)3578484474
20CFMM8FLATHEAD-AT COLUMBIA FALLS01-13-2020DISCHARGE (KAF)1439164787
21CHDW1CHELAN-LAKE CHELAN DAM01-13-2020INFLOW (KAF)23629979
22CHEI1FALL RIVER-NEAR CHESTER01-13-2020DISCHARGE (KAF)151149102
23CHJW1COLUMBIA-CHIEF JOSEPH DAM01-13-2020INFLOW (KAF)224962402594
24CIBW1COLUMBIA-AT INTL BOUNDARY01-13-2020DISCHARGE (KAF)16842MM
25CLFW1NACHES-NEAR CLIFFDEL01-13-2020DISCHARGE (KAF)15519878
26CLUW1CLE ELUM-CLE ELUM LAKE01-13-2020INFLOW (KAF)209171122
27COEI1COEUR D ALENE-COEUR D ALENE LAKE01-13-2020INFLOW (KAF)2091211199
28CSDI1NF PAYETTE-CASCADE DAM01-13-2020INFLOW (KAF)20721198
29DEDI1DEADWOOD-NEAR LOWMAN01-13-2020INFLOW (KAF)363990
30DLGM8CLARK FORK-AT DEER LODGE01-13-2020DISCHARGE (KAF)606691
31DRMM8CLARK FORK-NR DRUMMOND01-13-2020DISCHARGE (KAF)170MM
32DWRI1NF CLEARWATER-DWORSHAK DAM01-13-2020INFLOW (KAF)16261551105
33EASW1YAKIMA-AT EASTON01-13-2020DISCHARGE (KAF)10099101
34EMMI1PAYETTE-NEAR EMMETT01-13-2020DISCHARGE (KAF)54370677
35FCFM8NF FLATHEAD-NEAR COLUMBIA FALLS01-13-2020DISCHARGE (KAF)39440398
36GCDW1COLUMBIA-GRAND COULEE DAM01-13-2020INFLOW (KAF)2003919572102
37GIBO3UMATILLA-NEAR GIBBON01-13-2020DISCHARGE (KAF)8878114
38HALI1BIG WOOD-AT HAILEY01-13-2020DISCHARGE (KAF)556881
39HEII1SNAKE-NEAR HEISE01-13-2020DISCHARGE (KAF)80094285
40HHWM8SF FLATHEAD-HUNGRY HORSE DAM01-13-2020INFLOW (KAF)57557999
41HODO3HOOD-NEAR TUCKER BRIDGE01-13-2020DISCHARGE (KAF)310292106
42HOPI1PEND OREILLE-PEND OREILLE LAKE NR HOPE01-13-2020LAKE ELEVATION (FT)MMM
43HOTI1BRUNEAU-NEAR HOT SPRINGS01-13-2020DISCHARGE (KAF)839290
44HWRI1BIG LOST-AT HOWELL RANCH NEAR CHILLY01-13-2020DISCHARGE (KAF)242982
45IHDW1SNAKE-ICE HARBOR DAM01-13-2020INFLOW (KAF)90351273371
46IPDI1HENRYS FORK-ISLAND PARK DAM01-13-2020INFLOW (KAF)133131102
47JDAO3COLUMBIA-JOHN DAY DAM01-13-2020INFLOW (KAF)357684054088
48JKSW4SNAKE-NEAR JACKSON01-13-2020DISCHARGE (KAF)28540570
49JLKW4SNAKE-JACKSON LAKE AT DAM01-13-2020INFLOW (KAF)15817093
50KADW1KACHESS-KACHESS DAM01-13-2020INFLOW (KAF)8968131
51KEDW1YAKIMA-KEECHELUS LAKE01-13-2020INFLOW (KAF)9870141
52KERM8FLATHEAD-KERR DAM01-13-2020INFLOW (KAF)1698214279
53KIOW1YAKIMA-AT KIONA01-13-2020DISCHARGE (KAF)74894979
54LAUW1KETTLE-AT LAURIER01-13-2020DISCHARGE (KAF)718569126
55LEOI1KOOTENAI-AT LEONIA01-13-2020DISCHARGE (KAF)1534182784
56LGDW1SNAKE-LOWER GRANITE DAM01-13-2020INFLOW (KAF)87181256969
57LGSW1SNAKE-LITTLE GOOSE DAM01-13-2020INFLOW (KAF)87181260969
58LLKW1SPOKANE-AT LONGLAKE01-13-2020INFLOW (KAF)2320255291
59LMNW1SNAKE-LOWER MONUMENTAL DAM01-13-2020INFLOW (KAF)90351289270
60LUCI1BOISE-LUCKY PEAK DAM01-13-2020INFLOW (KAF)588MM
61LWRI1LITTLE WOOD-LITTLE WOOD DAM01-13-2020INFLOW (KAF)323984
62LYDM8KOOTENAI-LIBBY DAM01-13-2020INFLOW (KAF)1164126892
63MACI1BIG LOST-MACKAY RESERVOIR NEAR MACKAY01-13-2020INFLOW (KAF)3617206
64MAGI1BIG WOOD-MAGIC DAM01-13-2020INFLOW (KAF)8412468
65MCDW1COLUMBIA-MCNARY DAM01-13-2020INFLOW (KAF)339223827889
66MILI1SNAKE-AT MILNER01-13-2020DISCHARGE (KAF)107771
67MODO3DESCHUTES-AT MOODY NR BIGGS01-13-2020DISCHARGE (KAF)1430160789
68MONO3NF JOHN DAY-AT MONUMENT01-13-2020DISCHARGE (KAF)32048166
69MYKO3MCKAY CREEK-NEAR PILOT ROCK01-13-2020DISCHARGE (KAF)364286
70NACW1NACHES-NEAR NACHES01-13-2020DISCHARGE (KAF)20522691
71NOXM8CLARK FORK-NOXON RAPIDS DAM01-13-2020INFLOW (KAF)3206461469
72ORFI1CLEARWATER-AT OROFINO01-13-2020DISCHARGE (KAF)21112080102
73OWYO3OWYHEE-OWYHEE DAM01-13-2020INFLOW (KAF)26331683
74PARI1BOISE-NEAR PARMA01-13-2020DISCHARGE (KAF)370315118
75PARW1YAKIMA-NEAR PARKER01-13-2020DISCHARGE (KAF)52061385
76PATW1METHOW-NEAR PATEROS01-13-2020DISCHARGE (KAF)20322092
77PDTO3UMATILLA-AT PENDLETON01-13-2020DISCHARGE (KAF)18219295
78PESW1WENATCHEE-AT PESHASTIN01-13-2020DISCHARGE (KAF)51753297
79PIHI1PORTNEUF-AT POCATELLO01-13-2020DISCHARGE (KAF)719376
80PITW1KLICKITAT-NEAR PITT01-13-2020DISCHARGE (KAF)36348275
81PLDI1SF SNAKE-PALISADES DAM01-13-2020INFLOW (KAF)72190180
82PRTI1PRIEST-NEAR PRIEST RIVER01-13-2020DISCHARGE (KAF)458376122
83PRWW1COLUMBIA-PRIEST RAPIDS DAM01-13-2020INFLOW (KAF)2403623335103
84RCCM8ROCK CREEK-NEAR CLINTON01-13-2020DISCHARGE (KAF)667292
85REXI1HENRYS FORK-AT REXBURG01-13-2020DISCHARGE (KAF)502496101
86RIDI1WILLOW CREEK-RIRIE DAM01-13-2020INFLOW (KAF)4730157
87RILW1TIETON-RIMROCK LAKE NEAR RIMROCK01-13-2020INFLOW (KAF)769878
88RRHW1COLUMBIA-ROCKY REACH DAM01-13-2020INFLOW (KAF)235152510794
89SATI1ST MARIES-NEAR SANTA01-13-2020DISCHARGE (KAF)10712685
90SERO3JOHN DAY-AT SERVICE CK01-13-2020DISCHARGE (KAF)48472067
91SHYI1SNAKE-NEAR SHELLEY01-13-2020DISCHARGE (KAF)951115782
92SIFI1SNAKE-AB EAGLE ROCK NR IDAHO FALLS01-13-2020DISCHARGE (KAF)1006113189
93SJMI1ST JOE-AT ST MARIES01-13-2020STAGE (FT)MMM
94SNAI1SNAKE-AT BLACKFOOT01-13-2020DISCHARGE (KAF)813102979
95SPDI1CLEARWATER-AT SPALDING01-13-2020DISCHARGE (KAF)2782375174
96SPOW1SPOKANE-AT SPOKANE01-13-2020DISCHARGE (KAF)1970MM
97SRGM8CLARK FORK-AT ST REGIS01-13-2020DISCHARGE (KAF)1081131282
98STRM8ST. REGIS-NEAR ST. REGIS01-13-2020DISCHARGE (KAF)8713166
99SWAI1SNAKE-BELOW SWAN FALLS01-13-2020DISCHARGE (KAF)1771274065
100TCHW1WALLA WALLA-NEAR TOUCHET01-13-2020DISCHARGE (KAF)18722184
101TDAO3COLUMBIA-THE DALLES DAM01-13-2020INFLOW (KAF)362684321084
102TEAI1TETON-NEAR ST. ANTHONY01-13-2020DISCHARGE (KAF)129128101
103TNAW1TEANAWAY-BELOW FORKS01-13-2020DISCHARGE (KAF)122106115
104TONW1OKANOGAN-NEAR TONASKET01-13-2020DISCHARGE (KAF)38845685
105TRYO3GRANDE RONDE-TROY01-13-2020DISCHARGE (KAF)76787288
106UMAO3UMATILLA-NEAR UMATILLA01-13-2020DISCHARGE (KAF)14718082
107UMTW1YAKIMA-AT UMTANUM01-13-2020DISCHARGE (KAF)476469101
108UNDW1WHITE SALMON-NEAR UNDERWOOD01-13-2020DISCHARGE (KAF)30034886
109WANW1COLUMBIA-WANAPUM DAM01-13-2020INFLOW (KAF)2403723088104
110WEII1SNAKE-AT WEISER01-13-2020DISCHARGE (KAF)3285478869
111WELW1COLUMBIA-WELLS DAM01-13-2020INFLOW (KAF)230762467294
112WGCM8MF FLATHEAD-NEAR WEST GLACIER01-13-2020DISCHARGE (KAF)29537778
113WHBI1SALMON-AT WHITEBIRD01-13-2020DISCHARGE (KAF)1301177373
114WRMO3MALHEUR-WARM SPRINGS DAM01-13-2020INFLOW (KAF)547572
115WSRI1WEISER-NEAR WEISER01-13-2020DISCHARGE (KAF)32233795